World > North America > United States > New York > Tioga

Hourly Tioga, NY Regional Weather

Feedback E-mail the Weather

Quick WX

Tioga, NY Weather Maps

°F °C°F °C
Tioga Weather Map
UTC Time: 8/9/2022, 22:00
Your Time:

Tioga, NY Regional Weather

Expires:202208092200;;754218
ASUS41 KBGM 092110
RWRBGM

REGIONAL WEATHER ROUNDUP
NATIONAL WEATHER SERVICE BINGHAMTON NY
500 PM EDT TUE AUG 09 2022

Note: "fair" indicates few or no clouds below 12,000 feet with no
significant weather and/or obstructions to visibility.

* = Station(s) that does not report precipitation, such as rain, 
snow, etc, also no thunder or fog.


NYZ009-015>018-022>025-036-037-044>046-055>057-062-092200
...Central New York...
  
CITY           SKY/WX    TMP DP  RH WIND       PRES   REMARKS
Binghamton     SUNNY     74  62  66 N10       30.02S                  
Cortland       PTSUNNY   72  59  64 NW6       30.04S                  
Dansville      CLOUDY    74  60  61 NW10      30.04S                  
Elmira         MOSUNNY   78  64  61 NE16      29.99S                  
Endicott       MOCLDY    77  63  61 N7        29.99                   
Ithaca         MOSUNNY   73  60  63 NW13      30.04S                  
Hamilton       CLOUDY    72  61  68 NW3       30.03S                  
Hornell        PTSUNNY   77  61  57 N9        30.07F                  
Monticello     PTSUNNY   83  70  64 NW14      29.98S HX  87           
Norwich        MOSUNNY   75  61  60 NW7       30.04S                  
Oneonta        SUNNY     73  61  64 W8        30.03S                  
Penn Yan       CLOUDY    74  60  61 NW7       30.04S                  
Rome           CLOUDY    74  64  71 W9        30.00S                  
Seneca Falls   MOCLDY    72  61  68 W8        30.03S                  
Sidney         PTSUNNY   79  64  61 N7        30.01S                  
Skaneateles    CLOUDY    72  64  78 CALM      30.03S                  
Syracuse       CLOUDY    72  64  76 NW7       30.02S                  
$$
 

SKY/WX - Weather  TMP - Temperature  DP - Dew Point  RH - Humidity
WIND - Wind Direction/Speed PRES - Barometric Pressure VSB - Visibility
WCI - Wind Chill Index E13G22 Wind - East Wind 13 mph/Gusts of 22 mph

Trending Headlines

Tioga Radar Loop



Tioga Quick Facts


National Two Day Weather Forecast


E-mail the Tioga Weather Forecast

Voice your opinion or tell us about page issues...